Location: Korczew
(51.3586°N, 19.4491°E)
Time: 21:39:57
(UTC+00:00)

Cosmos 773 Rocket - Pass Details

Date: 19 May 2025
Orbit: 742 x 772 km, 74.1° (Epoch: 16 June)

Event Time Altitude Azimuth Distance (km) Brightness Sun altitude
Exits shadow 20:11:34 12° 173° (S) 2,093 5.7 -11.7°
Maximum altitude 20:15:54 42° 105° (ESE) 1,055 4.4 -12.1°
Drops below altitude 10° 20:20:42 10° 36° (NE) 2,266 6.7 -12.5°
Sets 20:23:09 0° 30° (NNE) 3,194 7.6 -12.7°
